Weather History for Williamsport, PA

Change the Weather History Date:

Saturday, January 25, 2014

  Actual Average Record
Temperature  
Mean Temperature 22 °F 27 °F  
Max Temperature 27 °F 34 °F 69 °F (1967)
Min Temperature 16 °F 19 °F -6 °F (1963)
Degree Days  
Heating Degree Days 43 38  
Month to date heating degree days 1061 958  
Since 1 July heating degree days 3377 3251  
Cooling Degree Days 0 0  
Month to date cooling degree days 0 0  
Year to date cooling degree days 0 0  
Moisture  
Dew Point 10 °F    
Average Humidity 63    
Maximum Humidity 84    
Minimum Humidity 42    
Precipitation  
Precipitation 0.02 in 0.08 in 2.90 in (2010)
Month to date precipitation 1.24 2.17  
Year to date precipitation 1.24 2.17  
Snow  
Snow 0.50 in - - ()
Month to date snowfall 7.8  
Since 1 July snowfall 24.1  
Snow Depth T in    
Sea Level Pressure  
Sea Level Pressure 29.50 in    
Wind  
Wind Speed 10 mph (SSE)    
Max Wind Speed 23 mph    
Max Gust Speed 30 mph    
Visibility 6 miles    
Events Snow    
T = Trace of Precipitation, MM = Missing Value Source: NWS Daily Summary

Daily Weather History Graph

Daily Weather History Graph

Search for Another Location

Airport:

Trip Planner

Search our weather history database for the weather conditions in past years. The results will help you decide how hot, cold, wet, or windy it might be!

Date:

Astronomy

Jan. 25, 2014 Rise Set
Actual Time 7:25 AM EST 5:15 PM EST
Civil Twilight 6:55 AM EST 5:45 PM EST
Nautical Twilight 6:21 AM EST 6:18 PM EST
Astronomical Twilight 5:49 AM EST 6:51 PM EST
Moon 1:54 AM EST 12:14 PM EST
Length of Visible Light 10h 49m
Length of Day
9h 50m
Waning Crescent, 34% of the Moon is Illuminated
Jan 25
Waning Crescent
Jan 30
New
Feb 6
First Quarter
Feb 14
Full
Feb 22
Last Quarter

Hourly Weather History & Observations

Time (EST) Temp. Windchill Dew Point Humidity Pressure Visibility Wind Dir Wind Speed Gust Speed Precip Events Conditions
12:54 AM 17.1 °F 8.7 °F -2.9 °F 41% 29.89 in 10.0 mi East 5.8 mph - N/A   Clear
1:54 AM 16.0 °F 2.3 °F -2.9 °F 43% 29.85 in 10.0 mi SSE 12.7 mph 21.9 mph N/A   Clear
2:54 AM 16.0 °F 1.7 °F -2.9 °F 43% 29.81 in 10.0 mi SSE 13.8 mph 24.2 mph N/A   Partly Cloudy
3:54 AM 16.0 °F 2.9 °F -2.9 °F 43% 29.77 in 10.0 mi SE 11.5 mph 23.0 mph N/A   Partly Cloudy
4:54 AM 16.0 °F 0.1 °F -2.0 °F 45% 29.72 in 10.0 mi South 17.3 mph 26.5 mph N/A   Overcast
5:54 AM 17.1 °F 2.5 °F -0.9 °F 45% 29.70 in 10.0 mi SSE 15.0 mph 24.2 mph N/A   Overcast
6:54 AM 17.1 °F 3.6 °F -0.9 °F 45% 29.68 in 10.0 mi South 12.7 mph 23.0 mph N/A   Overcast
7:54 AM 18.0 °F 4.2 °F -0.9 °F 44% 29.64 in 10.0 mi South 13.8 mph 24.2 mph N/A   Clear
8:54 AM 19.0 °F 2.4 °F 1.0 °F 46% 29.61 in 10.0 mi SSE 21.9 mph 27.6 mph N/A   Overcast
9:54 AM 19.9 °F 5.7 °F 1.9 °F 46% 29.59 in 10.0 mi South 16.1 mph 28.8 mph N/A   Overcast
10:54 AM 23.0 °F 10.1 °F 3.9 °F 44% 29.55 in 10.0 mi South 15.0 mph 23.0 mph N/A   Overcast
11:54 AM 23.0 °F 11.1 °F 3.0 °F 42% 29.49 in 10.0 mi South 12.7 mph 27.6 mph N/A   Overcast
12:54 PM 25.0 °F 15.5 °F 5.0 °F 43% 29.44 in 10.0 mi South 9.2 mph 21.9 mph N/A   Overcast
1:54 PM 26.1 °F 17.6 °F 6.1 °F 43% 29.39 in 10.0 mi SSE 8.1 mph 23.0 mph N/A   Overcast
2:54 PM 26.1 °F 20.5 °F 8.1 °F 47% 29.37 in 10.0 mi SE 4.6 mph 17.3 mph N/A   Overcast
3:31 PM 24.8 °F 14.0 °F 10.4 °F 54% 29.35 in 2.5 mi South 11.5 mph 16.1 mph 0.00 in Snow Light Snow
3:47 PM 24.8 °F 16.9 °F 12.2 °F 59% 29.35 in 3.0 mi Variable 6.9 mph 20.7 mph 0.00 in Snow Light Snow
3:54 PM 25.0 °F 18.1 °F 12.0 °F 58% 29.37 in 2.5 mi Variable 5.8 mph - 0.00 in Snow Light Snow
4:04 PM 24.8 °F 15.3 °F 12.2 °F 59% 29.35 in 3.0 mi South 9.2 mph 19.6 mph 0.00 in Snow Light Snow
4:14 PM 24.8 °F 15.3 °F 12.2 °F 59% 29.35 in 2.5 mi South 9.2 mph - 0.00 in Snow Light Snow
4:33 PM 24.8 °F 17.9 °F 14.0 °F 64% 29.36 in 3.0 mi Variable 5.8 mph - 0.00 in Snow Light Snow
4:38 PM 24.8 °F 19.1 °F 15.8 °F 69% 29.36 in 1.8 mi SSW 4.6 mph - 0.00 in Snow Light Snow
4:54 PM 24.1 °F 16.0 °F 18.0 °F 77% 29.38 in 1.0 mi Variable 6.9 mph - 0.01 in Snow Light Snow
5:21 PM 24.8 °F 19.1 °F 17.6 °F 74% 29.37 in 1.8 mi South 4.6 mph - 0.00 in Snow Light Snow
5:29 PM 24.8 °F - 17.6 °F 74% 29.37 in 2.0 mi Calm Calm - 0.00 in Snow Light Snow
5:44 PM 23.0 °F 14.7 °F 17.6 °F 80% 29.37 in 1.8 mi SSE 6.9 mph - 0.00 in Snow Light Snow
5:54 PM 23.0 °F 17.0 °F 18.0 °F 81% 29.40 in 1.5 mi Variable 4.6 mph - 0.00 in Snow Light Snow
6:11 PM 23.0 °F 17.0 °F 17.6 °F 80% 29.38 in 2.0 mi North 4.6 mph - 0.00 in Snow Light Snow
6:21 PM 24.8 °F - 17.6 °F 74% 29.38 in 3.0 mi Calm Calm - 0.00 in Snow Light Snow
6:28 PM 24.8 °F - 17.6 °F 74% 29.38 in 4.0 mi Calm Calm - 0.01 in Snow Light Snow
6:54 PM 23.0 °F 17.0 °F 18.0 °F 81% 29.41 in 6.0 mi SE 4.6 mph - 0.01 in Snow Light Snow
7:18 PM 24.8 °F - 17.6 °F 74% 29.39 in 9.0 mi Calm Calm - 0.00 in   Overcast
7:54 PM 24.1 °F 19.7 °F 18.0 °F 77% 29.43 in 10.0 mi NNE 3.5 mph - 0.00 in   Overcast
8:09 PM 24.8 °F 20.5 °F 17.6 °F 74% 29.41 in 3.0 mi ENE 3.5 mph - 0.00 in Snow Light Snow
8:16 PM 24.8 °F - 17.6 °F 74% 29.41 in 2.5 mi Calm Calm - 0.00 in Snow Light Snow
8:33 PM 23.0 °F 17.0 °F 19.4 °F 86% 29.41 in 4.0 mi ENE 4.6 mph - 0.00 in Snow Light Snow
8:42 PM 23.0 °F - 19.4 °F 86% 29.42 in 5.0 mi Calm Calm - 0.00 in Snow Light Snow
8:54 PM 21.9 °F - 18.0 °F 85% 29.44 in 8.0 mi Calm Calm - 0.00 in   Overcast
9:37 PM 23.0 °F 10.6 °F 19.4 °F 86% 29.46 in 2.5 mi West 13.8 mph 18.4 mph 0.00 in Snow Light Snow
9:44 PM 24.8 °F 14.0 °F 15.8 °F 69% 29.47 in 3.0 mi WNW 11.5 mph 20.7 mph 0.00 in Snow Light Snow
9:54 PM 23.0 °F 10.1 °F 12.0 °F 63% 29.51 in 9.0 mi WNW 15.0 mph 23.0 mph 0.00 in   Overcast
10:54 PM 19.0 °F 6.8 °F 5.0 °F 54% 29.59 in 10.0 mi NW 11.5 mph 20.7 mph N/A   Overcast
11:54 PM 18.0 °F 7.7 °F 3.0 °F 52% 29.61 in 10.0 mi NW 8.1 mph - N/A   Mostly Cloudy